Location: Isle of Man Observatory
(54.1776°N, 4.6264°W)
Time: 19:59:14
(UTC+02:00)

ARIANE 6 FM1 Upper Stage - Visible Passes

Search period start: 16 April 2026 00:00
Search period end: 26 April 2026 00:00
Orbit: 525 x 604 km, 62.0° (Epoch: 16 April)

Date Brightness Start Highest point End Pass type
(mag) Time Alt. Az. Time Alt. Az. Time Alt. Az.
16 Apr 4.5 01:14:32 10° NW 01:18:05 28° N 01:20:55 14° ENE visible
16 Apr 3.3 02:53:40 10° NW 02:56:52 51° NNW 02:56:52 51° NNW visible
16 Apr 4.6 23:34:24 10° WNW 23:37:57 28° N 23:41:26 10° NE visible
17 Apr 4.3 01:14:14 10° NW 01:17:50 31° NNE 01:20:05 18° ENE visible
17 Apr 3.5 02:53:17 10° NW 02:56:01 42° NW 02:56:01 42° NW visible
17 Apr 4.6 23:34:14 10° WNW 23:37:43 27° N 23:41:09 10° NE visible
18 Apr 4.1 01:13:53 10° NW 01:17:35 34° NNE 01:19:19 23° ENE visible
18 Apr 3.8 02:52:54 10° NW 02:55:16 34° WNW 02:55:16 34° WNW visible
18 Apr 4.6 23:34:02 10° WNW 23:37:29 26° N 23:40:55 10° ENE visible
19 Apr 3.8 01:13:31 10° NW 01:17:18 39° NNE 01:18:36 30° ENE visible
19 Apr 4.1 02:52:32 10° WNW 02:54:33 27° WNW 02:54:33 27° WNW visible
19 Apr 4.6 23:33:48 10° NW 23:37:16 27° N 23:40:42 10° ENE visible
20 Apr 3.4 01:13:08 10° NW 01:17:00 45° NNE 01:17:55 38° ENE visible
20 Apr 4.3 02:52:13 10° WNW 02:53:52 22° WNW 02:53:52 22° WNW visible
20 Apr 4.5 23:33:32 10° NW 23:37:02 27° N 23:40:30 10° ENE visible
21 Apr 3.0 01:12:44 10° NW 01:16:41 55° NNE 01:17:16 49° ENE visible
21 Apr 4.6 02:51:56 10° WNW 02:53:13 18° WNW 02:53:13 18° WNW visible
21 Apr 4.3 23:33:13 10° NW 23:36:47 29° NNE 23:40:18 10° ENE visible
22 Apr 2.6 01:12:20 10° NW 01:16:20 69° NE 01:16:38 65° ENE visible
22 Apr 4.8 02:51:42 10° WNW 02:52:36 15° WNW 02:52:36 15° WNW visible
22 Apr 4.1 23:32:53 10° NW 23:36:31 31° NNE 23:40:04 10° E visible
23 Apr 2.4 01:11:56 10° NW 01:15:57 87° NE 01:16:02 85° E visible
23 Apr 5.1 02:51:37 10° WNW 02:52:00 12° W 02:52:00 12° W visible
23 Apr 3.9 23:32:31 10° NW 23:36:15 35° NNE 23:39:29 13° E visible
24 Apr 2.4 01:11:33 10° NW 01:15:27 73° SW 01:15:27 73° SW visible
24 Apr 3.6 23:32:09 10° NW 23:35:57 40° NNE 23:38:56 15° E visible
25 Apr 2.8 01:11:10 10° WNW 01:14:53 54° WSW 01:14:53 54° WSW visible
25 Apr 3.3 23:31:44 10° NW 23:35:38 48° NNE 23:38:23 18° E visible
